Hourly Data Report for August 27, 2013

All times are specified in Local Standard Time (LST). Add 1 hour to adjust for Daylight Saving Time where and when it is observed.

VICTORIA INTL A
BRITISH COLUMBIA

48°38'50.000" N
123°25'33.000" W
19.50 m
1018621
71799
YYJ

Download Data

Hourly Data (August 2013)
Hourly Data Report for August 27, 2013
Temp Definition
°C
Dew Point Temp Definition
°C
Rel Hum Definition
%
Wind Dir Definition
10's deg

Wind Spd Definition
km/h
Visibility Definition
km
Stn Press Definition
kPa
Hmdx Definition


Wind Chill Definition


Weather Definition


TIME
00:00 13.2 10.9 86 16 9 32.2 101.13     LegendNANA
01:00 13.4 10.4 82 12 6 32.2 101.14     Cloudy
02:00 13.0 10.6 85 8 8 32.2 101.13     LegendNANA
03:00 12.6 11.0 90 22 5 32.2 101.10     LegendNANA
04:00 13.2 11.4 89 27 5 32.2 101.08     Cloudy
05:00 13.2 11.6 90 26 2 24.1 101.08     LegendNANA
06:00 13.1 11.8 92 26 4 24.1 101.05     LegendNANA
07:00 14.6 12.5 87 4 3 24.1 101.09     Mostly Cloudy
08:00 15.3 13.0 86 14 1 24.1 101.12     LegendNANA
09:00 16.6 13.6 82 8 8 32.2 101.11     LegendNANA
10:00 18.2 14.0 76 17 11 32.2 101.09     Mostly Cloudy
11:00 17.8 13.8 77 14 9 32.2 101.09     LegendNANA
12:00 18.2 14.0 76 11 9 32.2 101.03     LegendNANA
13:00 19.7 14.6 72 12 5 32.2 101.01     Cloudy
14:00 19.9 14.6 71 13 6 32.2 100.96     LegendNANA
15:00 20.6 14.6 68 11 6 32.2 100.90     LegendNANA
16:00 20.9 14.4 66 7 5 32.2 100.88 25   Cloudy
17:00 20.7 14.2 66 30 6 32.2 100.80     LegendNANA
18:00 19.5 14.2 71 30 6 32.2 100.78     LegendNANA
19:00 18.5 13.4 72 28 18 32.2 100.75     Cloudy
20:00 17.0 13.8 81 28 8 32.2 100.78     Moderate Rain
21:00 15.4 14.3 93 32 11 16.1 100.82     Rain
22:00 15.4 14.6 95 29 6 16.1 100.84     Rain
23:00 15.3 14.7 96 1 1 16.1 100.86     Rain

Notes on Data Quality.

Legend

  • E = Estimated
  • M = Missing
  • NA = Not Available
Date modified: